TimeCDT,TemperatureF,Dew PointF,Humidity,Sea Level PressureIn,VisibilityMPH,Wind Direction,Wind SpeedMPH,Gust SpeedMPH,PrecipitationIn,Events,Conditions,WindDirDegrees,DateUTC
12:53 AM,41.0,36.0,82,30.23,10.0,North,3.5,-,N/A,,Clear,350,2012-10-28 05:53:00
1:53 AM,41.0,35.1,79,30.22,10.0,North,4.6,-,N/A,,Clear,350,2012-10-28 06:53:00
2:53 AM,39.9,34.0,79,30.22,10.0,NNW,3.5,-,N/A,,Clear,330,2012-10-28 07:53:00
3:53 AM,39.0,33.1,79,30.22,10.0,NNW,3.5,-,N/A,,Clear,330,2012-10-28 08:53:00
4:53 AM,37.9,33.1,83,30.22,10.0,Calm,Calm,-,N/A,,Clear,0,2012-10-28 09:53:00
5:53 AM,37.9,32.0,79,30.23,10.0,North,3.5,-,N/A,,Clear,350,2012-10-28 10:53:00
6:53 AM,37.9,32.0,79,30.24,10.0,North,4.6,-,N/A,,Clear,350,2012-10-28 11:53:00
7:53 AM,37.0,32.0,82,30.25,10.0,NNW,3.5,-,N/A,,Clear,340,2012-10-28 12:53:00
8:53 AM,43.0,34.0,71,30.27,10.0,North,4.6,-,N/A,,Clear,360,2012-10-28 13:53:00
9:53 AM,48.0,35.1,61,30.29,10.0,NNE,4.6,-,N/A,,Clear,30,2012-10-28 14:53:00
10:53 AM,52.0,32.0,47,30.29,10.0,NE,5.8,-,N/A,,Clear,40,2012-10-28 15:53:00
12:53 PM,57.9,32.0,37,30.26,10.0,North,10.4,-,N/A,,Clear,360,2012-10-28 17:53:00
1:53 PM,61.0,28.0,29,30.24,10.0,NNE,8.1,-,N/A,,Clear,30,2012-10-28 18:53:00
2:53 PM,62.1,27.0,26,30.21,10.0,North,8.1,-,N/A,,Clear,360,2012-10-28 19:53:00
3:53 PM,62.1,26.1,25,30.20,10.0,North,10.4,17.3,N/A,,Clear,360,2012-10-28 20:53:00
4:53 PM,62.1,27.0,26,30.19,10.0,Variable,4.6,-,N/A,,Clear,0,2012-10-28 21:53:00
5:53 PM,60.1,26.1,27,30.19,10.0,North,6.9,-,N/A,,Clear,10,2012-10-28 22:53:00
6:53 PM,55.9,28.9,36,30.20,10.0,Calm,Calm,-,N/A,,Clear,0,2012-10-28 23:53:00
7:53 PM,50.0,37.0,61,30.22,10.0,Calm,Calm,-,N/A,,Clear,0,2012-10-29 00:53:00
8:53 PM,48.9,37.0,64,30.22,10.0,Calm,Calm,-,N/A,,Clear,0,2012-10-29 01:53:00
9:53 PM,46.9,37.0,68,30.24,10.0,Calm,Calm,-,N/A,,Clear,0,2012-10-29 02:53:00
10:53 PM,45.0,37.0,74,30.24,9.0,Calm,Calm,-,N/A,,Clear,0,2012-10-29 03:53:00
11:53 PM,44.1,37.0,76,30.25,9.0,Calm,Calm,-,N/A,,Clear,0,2012-10-29 04:53:00